Hourly Data Report for June 25, 2021

OTTAWA INTL A
ONTARIO
Current Station Operator: NAVCAN

45°19'00.000" N
75°40'00.000" W
114.90 m
6106001
71628
YOW

Download Data

Hourly Data (June 2021)
Hourly Data Report for June 25, 2021
TIME
LST
Temp Definition
°C
Dew Point Definition
°C
Rel Hum Definition
%
Precip. Amount Definition
mm

Wind Dir Definition
10's deg

Wind Spd Definition
km/h
Visibility Definition
km
Stn Press Definition
kPa
Hmdx Definition


Wind Chill Definition


Weather Definition


00:00 21.2 10.2 49   18 21 24.1 100.73     LegendNANA
01:00 20.4 10.1 51   19 17 24.1 100.72     Mostly Cloudy
02:00 20.0 10.1 52   18 18 24.1 100.69     LegendNANA
03:00 19.8 10.2 53   18 18 24.1 100.69     LegendNANA
04:00 19.6 10.2 54   19 22 24.1 100.70     Cloudy
05:00 19.2 10.4 56   18 17 24.1 100.74     LegendNANA
06:00 19.3 10.9 58   18 19 24.1 100.75     LegendNANA
07:00 19.6 11.3 58   18 21 24.1 100.76     Mostly Cloudy
08:00 19.9 11.6 58   20 16 24.1 100.80     LegendNANA
09:00 21.1 11.8 55   20 19 24.1 100.78     LegendNANA
10:00 21.3 12.5 57   19 18 24.1 100.77     Mostly Cloudy
11:00 22.0 13.2 57   17 12 24.1 100.74 25   LegendNANA
12:00 21.9 13.2 57   18 13 24.1 100.74 25   LegendNANA
13:00 22.6 14.4 59   19 9 24.1 100.68 26   Mostly Cloudy
14:00 22.9 15.9 64   14 9 24.1 100.60 27   LegendNANA
15:00 23.8 16.2 62   19 8 24.1 100.59 29   LegendNANA
16:00 24.1 15.7 59   18 13 24.1 100.56 29   Cloudy
17:00 23.9 16.5 63   17 10 24.1 100.53 29   LegendNANA
18:00 23.1 17.0 68   17 9 24.1 100.49 28   Rain
19:00 21.9 17.3 75   17 5 24.1 100.49 27   Rain
20:00 20.7 18.3 86   9 7 24.1 100.46 27   Rain
21:00 20.2 18.7 91   9 9 24.1 100.46 27   Rain
22:00 20.0 18.8 93   11 9 16.1 100.43 27   Rain
23:00 20.0 18.0 88   15 13 16.1 100.44 26   Rain

Notes on Data Quality.

Legend

  • E = Estimated
  • M = Missing
  • NA = Not Available*
  • [empty] = Indicates an unobserved value
Date modified: